Simultaneous Nadir Overpasses (SNOs) Predictions

Prediction of SNOs between LANDSAT-8 and METOP-B Satellite Orbit:

Table of predicted SNOs for the next 14.0 days since TLE Epoch: 2/16/2018
Index Date (LANDSAT-8) Time (LANDSAT-8) Lat,Lon (LANDSAT-8) SZA (LANDSAT-8 ) Date (METOP-B) Time (METOP-B) Lat,Lon (METOP-B) SZA (METOP-B ) Distance(km) Time Diff (sec)
1 02/18/2018 20:05:12 81.13, -81.69 94.18 02/18/2018 20:04:30 81.12, -81.88 94.15 3.28 42
2 02/18/2018 20:54:38 -81.15, 86.25 85.79 02/18/2018 20:55:09 -81.15, 86.15 85.79 1.67 31
3 02/21/2018 15:39:25 81.13, -15.25 93.18 02/21/2018 15:38:50 81.13, -15.15 93.19 1.90 35
4 02/21/2018 16:28:51 -81.15, 152.71 86.79 02/21/2018 16:29:29 -81.16, 152.88 86.75 3.03 38
5 02/24/2018 11:13:38 81.15, 51.52 92.21 02/24/2018 11:13:11 81.14, 51.56 92.20 0.80 27
6 02/24/2018 12:03:04 -81.17,-140.49 87.76 02/24/2018 12:03:50 -81.17,-140.41 87.73 1.41 46
7 02/27/2018 06:47:52 81.14, 117.88 91.16 02/27/2018 06:47:33 81.14, 117.87 91.15 0.30 19
8 02/27/2018 07:37:18 -81.17, -74.11 88.80 02/27/2018 07:38:12 -81.16, -74.10 88.78 0.30 54
9 03/02/2018 02:22:06 81.14,-175.79 90.10 03/02/2018 02:21:55 81.14,-175.84 90.09 0.86 11




NCC Satellite Simultaneous Nadir Overpasses (SNOs) Prediction Service
